Change the Weather History Date:

Saturday, December 21, 2013

  Actual Average Record
Temperature  
Mean Temperature 73 °F 53 °F  
Max Temperature 84 °F 65 °F 84 °F (2013)
Min Temperature 62 °F 41 °F 19 °F (2000)
Degree Days  
Heating Degree Days 0 12  
Month to date heating degree days 118 211  
Since 1 July heating degree days 247 379  
Cooling Degree Days 8 0  
Month to date cooling degree days 40 14  
Year to date cooling degree days 2862 2616  
Growing Degree Days 23 (Base 50)    
Moisture  
Dew Point 63 °F    
Average Humidity 76    
Maximum Humidity 93    
Minimum Humidity 48    
Precipitation  
Precipitation 0.00 in 0.08 in 0.63 in (2014)
Month to date precipitation 1.63 1.82  
Year to date precipitation 63.10 47.66  
Sea Level Pressure  
Sea Level Pressure 30.08 in    
Wind  
Wind Speed 6 mph (South)    
Max Wind Speed 20 mph    
Max Gust Speed 25 mph    
T = Trace of Precipitation, MM = Missing Value Source: NWS Daily Summary

Daily Weather History Graph

Daily Weather History Graph

Search for Another Location

Airport or City:

Trip Planner

Search our weather history database for the weather conditions in past years. The results will help you decide how hot, cold, wet, or windy it might be!

Date:

Astronomy

Dec. 21, 2013 Rise Set
Actual Time 7:23 AM EST 5:38 PM EST
Civil Twilight 6:57 AM EST 6:04 PM EST
Nautical Twilight 6:27 AM EST 6:34 PM EST
Astronomical Twilight 5:58 AM EST 7:03 PM EST
Moon 9:36 PM EST (12/21) 10:03 AM EST (12/21)
Length of Visible Light 11h 07m
Length of Day
10h 14m
Waning Gibbous, 84% of the Moon is Illuminated
Dec 21
Waning Gibbous
Dec 25
Last Quarter
Jan 1
New
Jan 7
First Quarter
Jan 15
Full

Hourly Weather History & Observations

Time (EST) Temp. Heat Index Dew Point Humidity Pressure Visibility Wind Dir Wind Speed Gust Speed Precip Events Conditions
12:53 AM 66.9 °F - 60.1 °F 79% 30.12 in - Variable 3.5 mph - N/A   Unknown
1:53 AM 64.9 °F - 59.0 °F 81% 30.11 in - ESE 3.5 mph - N/A   Unknown
2:53 AM 64.0 °F - 59.0 °F 84% 30.10 in - SE 3.5 mph - N/A   Unknown
3:53 AM 63.0 °F - 59.0 °F 87% 30.10 in - Calm Calm - N/A   Unknown
4:53 AM 63.0 °F - 60.1 °F 90% 30.10 in - Calm Calm - N/A   Unknown
5:53 AM 63.0 °F - 60.1 °F 90% 30.10 in - Calm Calm - N/A   Unknown
6:53 AM 63.0 °F - 61.0 °F 93% 30.11 in - Variable 3.5 mph - N/A   Unknown
7:53 AM 64.0 °F - 62.1 °F 93% 30.11 in - Calm Calm - N/A   Unknown
8:53 AM 69.1 °F - 64.9 °F 87% 30.12 in - SE 4.6 mph - N/A   Unknown
9:53 AM 73.9 °F - 66.9 °F 79% 30.12 in - SSE 10.4 mph - N/A   Unknown
10:53 AM 79.0 °F - 66.9 °F 66% 30.11 in - SSE 11.5 mph 21.9 mph N/A   Unknown
11:53 AM 82.0 °F 83.8 °F 64.9 °F 56% 30.09 in - South 16.1 mph 23.0 mph N/A   Unknown
12:53 PM 84.0 °F 84.9 °F 63.0 °F 49% 30.05 in - South 13.8 mph 21.9 mph N/A   Unknown
1:53 PM 84.0 °F 84.9 °F 63.0 °F 49% 30.03 in - South 13.8 mph 20.7 mph N/A   Unknown
2:53 PM 82.9 °F 84.0 °F 63.0 °F 51% 30.02 in - South 12.7 mph 21.9 mph N/A   Unknown
3:53 PM 82.0 °F 83.4 °F 64.0 °F 54% 30.02 in - South 11.5 mph - N/A   Unknown
4:53 PM 80.1 °F 82.1 °F 66.0 °F 62% 30.04 in - SSW 6.9 mph - N/A   Unknown
5:53 PM 75.0 °F - 66.0 °F 73% 30.05 in - SSW 4.6 mph - N/A   Unknown
6:53 PM 72.0 °F - 66.0 °F 81% 30.06 in - SSW 3.5 mph - N/A   Unknown
7:53 PM 69.1 °F - 64.9 °F 87% 30.07 in - South 3.5 mph - N/A   Unknown
8:53 PM 66.9 °F - 64.0 °F 90% 30.07 in - SSE 3.5 mph - N/A   Unknown
9:53 PM 69.1 °F - 64.9 °F 87% 30.07 in - South 5.8 mph - N/A   Unknown
10:53 PM 68.0 °F - 64.9 °F 90% 30.06 in - SE 3.5 mph - N/A   Unknown
11:53 PM 68.0 °F - 64.9 °F 90% 30.06 in - Calm Calm - N/A   Unknown